Home > Weather > Bratislava > Past weeks

Flag for Slovakia Weather for the Past 2 Weeks in Bratislava, Slovakia

Now
43 °F

Clear.


Feels Like: 39 °F
Forecast: 51 / 64 °F
Wind: 7 mph from Northeast

Location: Bratislava Ivanka

Current Time: May 1, 2016 at 4:22:03 AM

Latest Report: May 1, 2016 at 3:30 AM


Visibility: 10 mi

Pressure: 30.04 "Hg

Humidity: 81%

Dew Point: 37 °F

Location of BratislavaLocation

Historic Weather in Bratislava — Graph

°F

Bratislava Temperature Yesterday

Maximum temperature yesterday: 64 °F (at 2:00 PM)
Minimum temperature yesterday: 37 °F (at 4:00 AM)
Average temperature yesterday: 53 °F

High & Low Weather Summary for the Past Weeks

 TemperatureHumidityPressure
High75 °F (Apr 16, 5:00 PM)100% (Apr 28, 5:30 AM)30.36 "Hg (Apr 28, 5:30 AM)
Low30 °F (Apr 26, 6:00 AM)32% (Apr 25, 4:30 PM)29.59 "Hg (Apr 23, 7:00 PM)
Average51 °F60%29.95 "Hg
* Reported Apr 16 3:00 AM — May 1 3:00 AM, Bratislava, Weather by CustomWeather, © 2016

Note: Actual official high and low records may vary slightly from our data, if they occured in-between our weather recording intervals... More about our weather records

Advertising

Bratislava Weather History for the Previous 24 Hours

Scroll right to see more
 ConditionsComfort  
Time TempWeatherWind HumidityBarometerVisibility
3:00 AM
Sun, May 1
45 °FClear.7 mph76%30.04 "Hg10 mi
2:30 AM43 °FClear.8 mph81%30.04 "Hg10 mi
2:00 AM46 °FClear.6 mph71%30.04 "Hg10 mi
1:30 AM48 °FClear.6 mph66%30.04 "Hg10 mi
1:00 AM48 °FClear.7 mph66%30.04 "Hg10 mi
12:30 AM52 °FClear.5 mph54%30.04 "Hg10 mi
12:00 AM50 °FClear.5 mph62%30.04 "Hg10 mi
11:30 PM
Sat, Apr 30
52 °FClear.5 mph58%30.04 "Hg10 mi
11:00 PM50 °FClear.5 mph67%30.04 "Hg10 mi
10:30 PM52 °FPassing clouds.3 mph62%30.04 "HgN/A
10:00 PM54 °FClear.2 mph58%30.04 "Hg10 mi
9:30 PM55 °FPassing clouds.3 mph51%30.04 "HgN/A
9:00 PM55 °FSunny.6 mph51%30.04 "Hg10 mi
8:30 PM57 °FSunny.6 mph48%30.04 "Hg10 mi
8:00 PM59 °FSunny.6 mph45%30.04 "Hg10 mi
7:30 PM59 °FSunny.5 mph51%30.04 "Hg10 mi
7:00 PM63 °FSunny.7 mph39%30.04 "Hg10 mi
6:30 PM64 °FSunny.5 mph40%30.04 "Hg10 mi
6:00 PM64 °FSunny.8 mph32%30.04 "Hg10 mi
5:30 PM64 °FPassing clouds.8 mph34%30.04 "HgN/A
5:00 PM64 °FPassing clouds.9 mph32%30.04 "HgN/A
4:30 PM64 °FPassing clouds.9 mph32%30.04 "HgN/A
4:00 PM64 °FPassing clouds.6 mph32%30.07 "HgN/A
3:30 PM64 °FPassing clouds.9 mph34%30.07 "HgN/A
3:00 PM64 °FPassing clouds.8 mph34%30.07 "HgN/A
2:30 PM64 °FPassing clouds.5 mph40%30.07 "HgN/A
2:00 PM64 °FPassing clouds.8 mph37%30.07 "HgN/A
1:30 PM63 °FPassing clouds.10 mph42%30.09 "HgN/A
1:00 PM63 °FPassing clouds.7 mph42%30.09 "HgN/A
12:30 PM61 °FPassing clouds.10 mph42%30.09 "HgN/A
12:00 PM61 °FPassing clouds.7 mph45%30.09 "HgN/A
11:00 AM55 °FPassing clouds.6 mph55%30.12 "HgN/A
10:30 AM55 °FPassing clouds.5 mph55%30.12 "HgN/A
10:00 AM52 °FPassing clouds.5 mph62%30.12 "HgN/A
9:00 AM50 °FPassing clouds.5 mph67%30.12 "HgN/A
8:30 AM48 °FSunny.6 mph66%30.12 "Hg10 mi
8:00 AM46 °FSunny.6 mph71%30.12 "Hg10 mi
7:30 AM45 °FSunny.3 mph76%30.12 "Hg10 mi
7:00 AM39 °FSunny.5 mph81%30.12 "Hg10 mi
6:30 AM37 °FClear.3 mph81%30.09 "Hg10 mi
6:00 AM37 °FClear.2 mph81%30.09 "Hg10 mi
5:30 AM37 °FClear.2 mph81%30.09 "Hg10 mi
5:00 AM37 °FClear.2 mph81%30.09 "Hg10 mi
4:30 AM37 °FClear.5 mph87%30.09 "Hg10 mi
4:00 AM37 °FClear.5 mph87%30.09 "Hg10 mi
Weather by CustomWeather, © 2016

See weather overviewHow to use our weather pages